Tracking 30995 objects as of 6-Jul-2025
HD Live streaming from Space Station
objects crossing your sky now

PSLV R/B

Track PSLV R/B now!
10-day predictions


NORAD ID: 29713
Int'l Code: 2007-001E
Perigee: 571.5 km
Apogee: 600.6 km
Inclination: 98.0 °
Period: 96.2 minutes
Semi major axis: 6957 km
RCS: 9.9132 m2 (large)
Launch date: January 10, 2007
Source: India (IND)
Launch site: SRIHARIKOTA (SRI)

Note: This is a ROCKET BODY
Your satellite tracking list
DELTA 1 DEB
Track 1 satellite(s)




NASA's NSSDC Master Catalog

Two Line Element Set (TLE):
1 29713U 07001E   25187.61045838  .00002220  00000-0  20213-3 0  9995
2 29713  98.0489 205.1616 0020876 166.8608 193.3160 14.96115082  1204
Source of the keplerian elements: AFSPC